www.pogodaiklimat.ru

Погода и климат >> Архив погоды >> Норвегия >> Хаммерфест аэропорт


ПОГОДА в Хаммерфест аэропорту

  • Прогноз погоды в Хаммерфест аэропорту
  • Монитор погоды в Хаммерфест аэропорту

АРХИВ ПОГОДЫ в Хаммерфест аэропорту

Время (UTC), дата Ветер
(напр.,м/с)
 
Видим.   Явления Облачность Т
(С)
Тd
(С)
f
(%)
Тe
(С)
Тes
(С)
Комфортность P
(гПа)
Po
(гПа)
Тmin
(С)
Tmax
(С)
R
(мм)
R24
(мм)
S
(см)
04 10.07 СВ 4
{6}
н/о н/о +9.1 +6.6 84 +6 +6 1018.8 1009.1
05 10.07 СВ 4
{5}
н/о н/о +9.1 +6.2 82 +6 +6 1018.6 1008.9
06 10.07 СВ 4
{7}
н/о н/о +9.2 +6.1 81 +6 +6 1018.6 1008.9 +6.9 +9.7
07 10.07 СВ 3
{6}
н/о н/о +10.1 +6.1 76 +8 +8 1018.5 1008.8
08 10.07 СВ 3
{6}
н/о н/о +11.1 +6.7 74 +9 +9 1018.3 1008.6
09 10.07 З 3
{6}
н/о н/о +12.5 +6.3 66 +11 +11 1018.2 1008.5
10 10.07 СВ 2
{5}
н/о н/о +12.4 +6.2 66 +12 +12 1017.8 1008.1
11 10.07 СВ 3
{9}
н/о н/о +13.2 +5.9 61 +12 +12 1017.7 1008.1
12 10.07 В 5
{9}
н/о н/о +12.0 +6.1 67 +10 +10 1017.6 1008.0
13 10.07 В 5
{6}
н/о н/о +11.9 +6.2 68 +10 +10 1017.3 1007.6
14 10.07 СВ 5
{6}
н/о н/о +11.6 +5.9 68 +9 +9 1016.9 1007.2
15 10.07 СВ 5
{7}
н/о н/о +11.1 +5.4 68 +9 +9 1016.6 1006.9
16 10.07 СВ 5
{7}
н/о н/о +11.2 +5.7 69 +9 +9 1016.4 1006.7
17 10.07 СВ 5
{6}
н/о н/о +11.8 +5.2 64 +9 +9 1016.1 1006.4
18 10.07 СВ 3
{7}
н/о н/о +11.8 +5.5 65 +10 +10 1016.0 1006.4 +9.2 +13.8
19 10.07 В 2
{5}
н/о н/о +11.6 +5.9 68 +11 +11 1015.6 1006.0
20 10.07 СВ 5
{6}
н/о н/о +10.0 +6.0 76 +7 +7 1015.6 1005.9
21 10.07 С 1
{5}
н/о н/о +9.6 +5.6 76 +9 +9 1015.2 1005.5
22 10.07 С 2
{4}
н/о н/о +9.5 +5.7 77 +8 +8 1015.1 1005.4
23 10.07 С 1
{3}
н/о н/о +9.7 +5.9 77 +9 +9 1014.7 1004.9
00 11.07 штиль 0
{6}
н/о н/о +8.8 +6.3 84 +8 +8 1014.5 1004.7
01 11.07 СВ 1
{2}
н/о н/о +9.1 +6.2 82 +9 +9 1014.4 1004.6
02 11.07 СВ 5
{6}
н/о н/о +8.8 +6.4 85 +5 +5 1014.2 1004.4
03 11.07 В 3
{6}
н/о н/о +10.1 +6.1 76 +8 +8 1014.0 1004.3
04 11.07 В 4
{5}
н/о н/о +10.8 +5.6 70 +9 +9 1013.7 1004.1
05 11.07 В 2
{5}
н/о н/о +11.5 +5.6 67 +11 +11 1013.5 1003.9
06 11.07 В 3
{6}
н/о н/о +11.9 +4.9 62 +10 +10 1013.6 1004.0 +8.6 +12.2
07 11.07 В 3
{4}
н/о н/о +12.5 +5.9 64 +11 +11 1013.5 1003.9
08 11.07 В 3
{4}
н/о н/о +13.2 +6.1 62 +12 +12 1013.5 1003.9
09 11.07 ЮВ 2
{6}
н/о н/о +14.0 +5.6 57 +14 +14 1013.4 1003.9
10 11.07 В 3
{5}
н/о н/о +13.6 +5.5 58 +13 +13 1013.4 1003.9
11 11.07 В 4
{7}
н/о н/о +14.2 +5.3 55 +13 +13 1013.2 1003.7
12 11.07 СВ 5
{7}
н/о н/о +14.3 +4.3 51 +13 +13 1013.3 1003.8
13 11.07 В 4
{6}
н/о н/о +14.7 +5.0 52 +14 +14 1013.5 1004.0
14 11.07 В 4
{6}
н/о н/о +15.1 +4.8 50 +14 +14 1013.4 1003.9
15 11.07 СВ 4
{6}
н/о н/о +15.1 +4.8 50 +14 +14 1013.4 1003.9
16 11.07 СВ 4
{8}
н/о н/о +14.7 +4.4 50 +14 +14 1013.3 1003.8
17 11.07 СВ 4
{6}
н/о н/о +14.5 +3.9 49 +13 +13 1013.3 1003.8
18 11.07 СВ 4
{8}
н/о н/о +13.6 +3.1 49 +12 +12 1013.3 1003.7 +11.9 +15.6
19 11.07 СВ 2
{5}
н/о н/о +12.0 +3.8 57 +11 +11 1013.3 1003.7
20 11.07 С 2
{3}
н/о н/о +11.2 +3.5 59 +10 +10 1013.6 1003.9
21 11.07 СВ 2
{5}
н/о н/о +10.4 +4.1 65 +9 +9 1013.8 1004.1
22 11.07 СВ 1
{2}
н/о н/о +9.6 +4.0 68 +9 +9 1013.8 1004.1
23 11.07 СВ 1
{2}
н/о н/о +8.6 +4.1 73 +8 +8 1013.8 1004.1
00 12.07 СВ 1
{5}
н/о н/о +9.4 +4.0 69 +9 +9 1013.8 1004.1
01 12.07 СВ 1
{2}
н/о н/о +10.0 +4.6 69 +10 +10 1013.8 1004.1
02 12.07 штиль 0
{1}
н/о н/о +10.4 +5.4 71 +10 +10 1013.8 1004.1
03 12.07 ЮЗ 1
{1}
н/о н/о +10.6 +5.4 70 +10 +10 1013.7 1004.1
04 12.07 ЮЗ 1
{2}
н/о н/о +11.1 +5.6 69 +11 +11 1013.8 1004.2
05 12.07 ЮЗ 2
{3}
н/о н/о +11.6 +6.1 69 +11 +11 1013.9 1004.3
06 12.07 З 2
{3}
н/о н/о +12.4 +6.9 69 +12 +12 1013.9 1004.3 +8.1 +13.5
07 12.07 З 3
{7}
н/о н/о +13.5 +6.6 63 +12 +12 1014.0 1004.4
08 12.07 З 3
{5}
н/о н/о +13.6 +7.8 68 +13 +13 1014.0 1004.4
09 12.07 Ю 1
{4}
н/о н/о +15.6 +7.1 57 +16 +16 1014.0 1004.4
10 12.07 В 3
{5}
н/о н/о +15.6 +5.2 50 +15 +15 1013.9 1004.4
11 12.07 СВ 4
{8}
н/о н/о +16.0 +5.6 50 +15 +15 1014.0 1004.6
12 12.07 СВ 5
{8}
н/о н/о +16.0 +5.9 51 +15 +15 1013.8 1004.4
13 12.07 СВ 4
{7}
н/о н/о +16.3 +5.3 48 +16 +16 1013.9 1004.4
14 12.07 СВ 6
{7}
н/о н/о +15.1 +5.3 52 +14 +14 1014.2 1004.7
15 12.07 В 5
{8}
н/о н/о +15.2 +4.0 47 +14 +14 1014.2 1004.7
16 12.07 СВ 6
{7}
н/о н/о +14.8 +3.3 46 +13 +13 1014.2 1004.7
17 12.07 СВ 6
{9}
н/о н/о +13.4 +4.8 56 +11 +11 1014.3 1004.7
18 12.07 СВ 7
{9}
н/о н/о +12.6 +4.1 56 +10 +10 1014.4 1004.8 +12.3 +16.7
19 12.07 СВ 7
{8}
н/о н/о +12.5 +3.5 54 +10 +10 1014.5 1004.9
20 12.07 СВ 6
{8}
н/о н/о +11.7 +3.5 57 +9 +9 1014.9 1005.2
21 12.07 СВ 5
{7}
н/о н/о +11.5 +3.6 58 +9 +9 1015.0 1005.3
22 12.07 СВ 6
{7}
н/о н/о +10.9 +3.2 59 +8 +8 1015.2 1005.5
23 12.07 СВ 6
{8}
н/о н/о +10.3 +3.4 62 +7 +7 1015.3 1005.6
00 13.07 СВ 5
{8}
н/о н/о +9.7 +3.0 63 +7 +7 1015.5 1005.8
01 13.07 СВ 6
{8}
н/о н/о +9.1 +3.5 68 +6 +6 1015.5 1005.8
02 13.07 СВ 6
{8}
н/о н/о +9.5 +2.8 63 +6 +6 1015.8 1006.0
03 13.07 СВ 7
{9}
н/о н/о +9.4 +2.5 62 +6 +6 1015.8 1006.1
04 13.07 СВ 8
{10}
н/о н/о +9.7 +2.8 62 +6 +6 1015.9 1006.2
05 13.07 СВ 8
{10}
н/о н/о +9.8 +3.1 63 +6 +6 1016.0 1006.3
06 13.07 СВ 9
{11}
н/о н/о +10.0 +4.0 66 +6 +6 1016.0 1006.3 +8.8 +12.7
07 13.07 СВ 7
{10}
н/о н/о +11.2 +4.2 62 +8 +8 1016.1 1006.4
08 13.07 СВ 7
{10}
н/о н/о +11.0 +4.0 62 +8 +8 1016.4 1006.7
09 13.07 СВ 7
{9}
н/о н/о +11.1 +4.3 63 +8 +8 1016.4 1006.7
10 13.07 СВ 7
{9}
н/о н/о +11.8 +4.3 60 +9 +9 1016.2 1006.6
11 13.07 СВ 7
{10}
н/о н/о +11.3 +4.8 64 +8 +8 1016.2 1006.5
12 13.07 СВ 7
{10}
н/о н/о +11.6 +4.4 61 +9 +9 1016.1 1006.5
13 13.07 СВ 8
{11}
н/о н/о +10.8 +4.5 65 +7 +7 1016.2 1006.5
14 13.07 СВ 9
{12}
н/о н/о +10.5 +5.5 71 +7 +7 1016.3 1006.6
15 13.07 СВ 10
{12}
н/о н/о +9.5 +5.5 76 +5 +5 1016.5 1006.8
16 13.07 СВ 9
{12}
н/о н/о +8.9 +4.5 74 +4 +4 1016.6 1006.8
17 13.07 СВ 9
{11}
н/о н/о +8.4 +4.2 75 +4 +4 1016.6 1006.8
18 13.07 СВ 7
{12}
н/о н/о +7.7 +3.9 77 +3 +3 1016.6 1006.9 +7.7 +12.2
19 13.07 СВ 7
{9}
н/о н/о +7.9 +4.5 79 +3 +3 1016.7 1006.9
20 13.07 СВ 7
{9}
н/о н/о +7.4 +3.8 78 +3 +3 1016.9 1007.1
21 13.07 СВ 7
{9}
н/о н/о +7.0 +3.4 78 +2 +2 1016.9 1007.1
22 13.07 СВ 7
{9}
н/о н/о +6.9 +3.0 76 +2 +2 1017.0 1007.2
23 13.07 СВ 6
{8}
н/о н/о +6.7 +3.0 77 +2 +2 1017.0 1007.2
00 14.07 СВ 2
{9}
н/о н/о +6.9 +3.2 77 +5 +5 1017.0 1007.1
01 14.07 СЗ 1
{3}
н/о н/о +7.3 +3.0 74 +7 +7 1016.7 1006.9
02 14.07 СВ 3
{4}
н/о н/о +7.6 +3.3 74 +5 +5 1016.6 1006.8
03 14.07 СВ 2
{4}
н/о н/о +7.8 +3.7 75 +6 +6 1016.5 1006.7
04 14.07 С 4
{6}
н/о н/о +7.7 +3.9 77 +4 +4 1016.6 1006.8
05 14.07
{6}
н/о н/о +7.9 +4.1 77 1016.6 1006.8
06 14.07 С 3
{6}
н/о н/о +8.3 +4.3 76 +6 +6 1016.4 1006.7 +6.6 +8.5
07 14.07 С 2
{5}
н/о н/о +8.5 +4.9 78 +7 +7 1016.4 1006.6
08 14.07 З 3
{5}
н/о н/о +8.0 +4.6 79 +5 +5 1016.3 1006.5
09 14.07 З 2
{5}
н/о н/о +8.8 +4.8 76 +7 +7 1016.5 1006.8
10 14.07 СВ 4
{7}
н/о н/о +8.8 +3.7 70 +6 +6 1016.4 1006.7
11 14.07 С 4
{8}
н/о н/о +9.4 +2.7 63 +7 +7 1016.3 1006.6
12 14.07
{8}
н/о н/о +10.0 +3.1 62 1016.2 1006.5
13 14.07 С 4
{7}
н/о н/о +9.8 +3.6 65 +7 +7 1016.1 1006.4
14 14.07 С 4
{8}
н/о н/о +9.3 +3.1 65 +7 +7 1016.2 1006.4
15 14.07 СВ 4
{7}
н/о н/о +9.2 +3.2 66 +7 +7 1016.2 1006.5
16 14.07 СВ 4
{6}
н/о н/о +8.8 +3.4 69 +6 +6 1016.1 1006.3
17 14.07 СВ 3
{9}
н/о н/о +9.0 +3.2 67 +7 +7 1015.9 1006.2
18 14.07 СВ 3
{9}
н/о н/о +8.0 +3.7 74 +5 +5 1015.8 1006.1 +7.6 +10.9
19 14.07 С 1
{5}
н/о н/о +7.7 +4.5 80 +7 +7 1015.6 1005.9
20 14.07 С 3
{4}
н/о н/о +7.4 +4.2 80 +5 +5 1015.5 1005.7
21 14.07 С 2
{4}
н/о н/о +7.2 +4.3 82 +5 +5 1015.5 1005.7
22 14.07 СЗ 1
{4}
н/о н/о +7.2 +4.3 82 +6 +6 1015.3 1005.5
23 14.07 С 1
{5}
н/о н/о +6.9 +3.9 81 +6 +6 1015.3 1005.5
00 15.07 штиль 0
{5}
н/о н/о +6.8 +4.5 85 +6 +6 1015.1 1005.2
01 15.07 Ю 1
{1}
н/о н/о +7.1 +4.6 84 +6 +6 1014.9 1005.1
02 15.07 С 1
{2}
н/о н/о +7.3 +4.4 82 +6 +6 1014.9 1005.1
03 15.07 штиль 0
{3}
н/о н/о +7.9 +4.1 77 +7 +7 1014.7 1005.0
04 15.07 СЗ 3
{6}
н/о н/о +6.9 +4.9 87 +4 +4 1014.8 1005.0
05 15.07 С 1
{5}
н/о н/о +7.6 +3.8 77 +7 +7 1014.7 1004.9
06 15.07 З 2
{6}
н/о н/о +8.4 +4.0 74 +7 +7 1014.6 1004.8 +6.6 +8.7
07 15.07 СЗ 3
{7}
н/о н/о +8.7 +4.3 74 +6 +6 1014.3 1004.6
08 15.07 СВ 2
{6}
н/о н/о +8.4 +4.6 77 +7 +7 1014.6 1004.9
09 15.07 СВ 4
{5}
н/о н/о +8.6 +4.4 75 +6 +6 1014.7 1005.0
10 15.07 СЗ 3
{8}
н/о н/о +9.7 +3.0 63 +8 +8 1014.7 1005.0
11 15.07 С 3
{6}
н/о н/о +9.7 +3.9 67 +8 +8 1014.6 1004.9
12 15.07 СВ 3
{8}
н/о н/о +9.0 +4.6 74 +7 +7 1014.8 1005.1
13 15.07 С 3
{5}
н/о н/о +9.2 +3.6 68 +7 +7 1015.0 1005.2
14 15.07 СЗ 3
{6}
н/о н/о +9.5 +3.9 68 +7 +7 1015.1 1005.4
15 15.07 В 3
{6}
н/о н/о +9.0 +4.6 74 +7 +7 1015.0 1005.3
16 15.07 В 2
{6}
н/о н/о +9.3 +4.5 72 +8 +8 1015.2 1005.5
17 15.07 В 4
{6}
н/о н/о +9.3 +5.1 75 +7 +7 1015.2 1005.5
18 15.07 СВ 4
{7}
н/о н/о +7.7 +4.8 82 +4 +4 1015.4 1005.6 +7.7 +10.4
19 15.07 СВ 4
{6}
н/о н/о +6.9 +3.9 81 +3 +3 1015.6 1005.8
20 15.07 СВ 3
{5}
н/о н/о +6.1 +3.6 84 +3 +3 1015.8 1005.9
21 15.07 СВ 3
{4}
н/о н/о +6.2 +4.0 86 +3 +3 1016.0 1006.1
22 15.07 СВ 4
{5}
н/о н/о +6.7 +4.7 87 +3 +3 1016.0 1006.2
23 15.07 СВ 2
{4}
н/о н/о +7.0 +4.7 85 +5 +5 1016.1 1006.3
00 16.07 СВ 2
{6}
н/о н/о +7.0 +4.7 85 +5 +5 1016.3 1006.5
01 16.07 СВ 3
{3}
н/о н/о +7.4 +4.2 80 +5 +5 1016.3 1006.5
02 16.07 С 2
{4}
н/о н/о +7.6 +4.2 79 +6 +6 1016.4 1006.6
03 16.07 В 2
{3}
н/о н/о +8.3 +4.1 75 +7 +7 1016.6 1006.8
04 16.07 СВ 2
{3}
н/о н/о +8.7 +4.3 74 +7 +7 1016.7 1006.9
05 16.07 СВ 3
{5}
н/о н/о +9.1 +4.5 73 +7 +7 1016.7 1006.9
06 16.07 В 3
{6}
н/о н/о +10.1 +4.9 70 +8 +8 1016.6 1006.9 +5.9 +10.4
07 16.07 В 2
{4}
н/о н/о +10.4 +4.6 67 +9 +9 1016.7 1007.0
08 16.07 СВ 3
{5}
н/о н/о +10.9 +4.8 66 +9 +9 1016.7 1007.0
09 16.07 В 5
{9}
н/о н/о +10.2 +4.2 66 +7 +7 1016.7 1007.0
10 16.07 В 5
{7}
н/о н/о +10.8 +5.4 69 +8 +8 1016.8 1007.2
11 16.07 СВ 5
{7}
н/о н/о +10.2 +5.4 72 +7 +7 1017.0 1007.3
12 16.07 СВ 5
{9}
н/о н/о +10.4 +5.2 70 +8 +8 1017.2 1007.5
13 16.07 СВ 5
{7}
н/о н/о +10.4 +5.6 72 +8 +8 1017.2 1007.5
14 16.07 СВ 6
{7}
н/о н/о +10.6 +6.2 74 +7 +7 1017.3 1007.6
15 16.07 СВ 5
{7}
н/о н/о +10.9 +6.3 73 +8 +8 1017.2 1007.5
16 16.07 СВ 4
{6}
н/о н/о +10.8 +6.8 76 +8 +8 1017.4 1007.7
17 16.07 СВ 4
{6}
н/о н/о +11.1 +6.7 74 +9 +9 1017.4 1007.7
18 16.07 В 2
{7}
н/о н/о +11.0 +6.9 76 +10 +10 1017.4 1007.7 +9.7 +11.5
19 16.07 В 2
{5}
н/о н/о +10.5 +6.3 75 +9 +9 1017.1 1007.4
20 16.07 СВ 2
{4}
н/о н/о +10.4 +5.8 73 +9 +9 1017.1 1007.4
21 16.07 СВ 4
{4}
н/о н/о +10.3 +5.7 73 +8 +8 1017.2 1007.5
22 16.07 СВ 3
{5}
н/о н/о +9.9 +4.9 71 +8 +8 1017.3 1007.6
23 16.07 В 3
{5}
н/о н/о +9.6 +4.6 71 +7 +7 1017.3 1007.6
00 17.07 В 2
{5}
н/о н/о +10.0 +4.2 67 +9 +9 1017.0 1007.3
01 17.07 СВ 2
{4}
н/о н/о +9.4 +5.8 78 +8 +8 1016.8 1007.1
03 17.07 СВ 4
{6}
н/о н/о +9.2 +6.1 81 +6 +6 1016.4 1006.7
04 17.07 СВ 5
{6}
н/о н/о +9.2 +6.5 83 +6 +6 1016.1 1006.4

 

Местоположение метеостанции Хаммерфест аэропорт (Норвегия): широта 70.68 долгота 23.38 высота над уровнем моря 81 м.

В архиве по умолчанию представлена погода в Хаммерфест аэропорту за последнюю неделю. Архивные данные за месяц целиком и за предыдущие месяцы, начиная с января 2011 года, Вы можете получить, выбрав интересующий диапазон дат из раскрывающегося списка и нажав кнопку "Ввод!".


*Определитесь, кто Вы:
робот инопланетянин человек

Внимание! Время в таблицах - всемирное. Для получения местного времени необходимо прибавить поправку, которая равна 1 ч.

Смотрите также архив погоды в соседних городах и на ближайших метеорологических станциях:

Погода на Хасвике (Норвегия) (36 км)
Погода в Рогнсундете (Норвегия) (37 км)
Погода в Хасвик аэропорту (Норвегия) (50 км)
Погода на Маяке Fruholmen (Норвегия) (51 км)
Погода в Альта аэропорту (Норвегия) (78 км)
Погода в Банаке (Норвегия) (92 км)
Погода в Хоннигсвог аэропорту (Норвегия) (102 км)
Погода в Суоловуопми-Лулит (Норвегия) (122 км)
Погода в Сёрхьюсен аэропорту (Норвегия) (134 км)
Погода в Карасйоке (Норвегия) (148 км)

Пояснения к столбцам:

Ветер - указаны скорость ветра в м/с - средняя за 10 мин, порывы в срок и между сроками (в фигурных скобках) и направление, откуда дует ветер: С - северный, СВ - северо-восточный, В - восточный, ЮВ - юго-восточный, Ю - южный, ЮЗ - юго-западный, З - западный, СЗ - северо-западный.
Видимость - горизонтальная дальность видимости в метрах или километрах. При видимости от 1 до 10 км при отсутствии осадков обычно наблюдается дымка, при ухудшении видимости до 1 км и менее - туман. В сухую погоду видимость может ухудшаться дымом, пылью или мглою.
Явления - указаны атмосферные явления, наблюдавшиеся в срок или в последний час перед сроком; фигурными скобками обозначены явления, наблюдавшиеся между сроками (за 1-3 часа до срока); квадратными скобками обозначены град или гололедные отложения с указанием их диаметра в мм.
Облачность - указаны через наклонную черту общая и нижняя облачность в баллах и высота нижней границы облаков в метрах; квадратными скобками обозначены формы облаков: Ci - перистые, Cs - перисто-слоистые, Cc - перисто-кучевые, Ac - высококучевые, As - высокослоистые, Sc - слоисто-кучевые, Ns - слоисто-дождевые, Cu - кучевые, Cb - кучево-дождевые. Подробнее классификацию облаков см. в Атласе облаков (PDF).
T - Температура воздуха - температура, измеренная на высоте 2 м над землей.
Td - Температура точки росы - температура, при понижении до которой содержащийся в воздухе водяной пар достигнет насыщения.
f - Относительная влажность воздуха - влажноcть воздуха, измеренная на высоте 2 м над землей.
Te - Эффективная температура - температура, которую ощущает одетый по сезону человек в тени. Характеристика душности погоды. При расчете учитывается влияние влажности воздуха и скорости ветра на теплоощущения человека.
Tes - Эффективная температура на солнце - температура, которую ощущает человек, с поправкой на солнечный нагрев. Характеристика знойности погоды. Зависит от высоты солнца над горизонтом, облачности и скорости ветра. Ночью, в пасмурную погоду, а также при ветре 12 м/с и более поправка равна нулю.
P - Атмосферное давление - приведенное к уровню моря атмосферное давление.
Po - Атмосферное давление - измеренное на уровне метеостанции атмосферное давление.
Tmin - Минимальная температура - минимум температуры воздуха на высоте 2 м над землей.
Tmax - Максимальная температура - максимум температуры воздуха на высоте 2 м над землей.
R - Количество осадков - Количество выпавших осадков за период времени, мм. При наведении курсора мыши на число - период времени, за который выпало указанное количество осадков.
R24 - Количество осадков - Количество выпавших осадков за 24 часа, мм.
S - Снежный покров - Высота снежного покрова, см. При наведении курсора мыши на число - состояние снежного покрова и степень покрытия местности в баллах.